Flag for U.S.A. Weather past 2 weeks in Miami, Florida, U.S.A.

Now
86 °F

Partly sunny.


Feels Like: 93 °F
Forecast: 74 / 85 °F
Wind: 7 mph from Southeast

Location: Miami International Airport

Current Time: Sep 21, 2014 at 5:05:21 PM

Latest Report: Sep 21, 2014 at 3:53 PM


Visibility: 10 mi

Pressure: 29.96 "Hg

Humidity: 65%

Dew point: 73 °F

Location of MiamiLocation

Historic Weather in Miami — Graph

°F

Miami temperature yesterday

Maximum temperature yesterday: 89 °F (at 2:53 PM)
Minimum temperature yesterday: 75 °F (at 5:53 PM)
Average temperature yesterday: 78 °F

Past Weeks' High & Low Weather Summary

 TemperatureHumidityPressure
High92 °F (Sep 17, 2:53 PM)96% (Sep 7, 4:53 AM)30.16 "Hg (Sep 7, 4:53 AM)
Low73 °F (Sep 21, 4:53 AM)47% (Sep 17, 2:53 PM)29.87 "Hg (Sep 18, 5:53 PM)
Average81 °F77%30.00 "Hg
* Reported Sep 6 3:53 PM — Sep 21 3:53 PM, Miami, Weather by CustomWeather, © 2014

Note: Actual official high and low records may vary slightly from our data, if they occured in-between our weather recording intervals... More about our weather records

Advertising

Miami weather history for previous 24 hours

 ConditionsComfort  
Time TempWeatherWind HumidityBarometerVisibility
3:53 PM
Sep 21
86 °FPartly sunny.7 mph65%29.96 "Hg10 mi
2:53 PM87 °FPartly sunny.7 mph63%29.98 "Hg10 mi
1:53 PM86 °FBroken clouds.3 mph57%29.99 "Hg10 mi
12:53 PM87 °FPartly sunny.3 mph59%30.00 "Hg10 mi
11:53 AM86 °FBroken clouds.No wind59%30.01 "Hg10 mi
10:53 AM84 °FBroken clouds.3 mph57%30.02 "Hg10 mi
9:53 AM81 °FPartly sunny.3 mph72%30.02 "Hg10 mi
8:53 AM79 °FPartly sunny.No wind79%30.01 "Hg10 mi
7:53 AM75 °FPassing clouds.No wind90%29.99 "Hg10 mi
6:53 AM74 °FPassing clouds.No wind94%29.98 "Hg10 mi
5:53 AM74 °FPartly cloudy.No wind94%29.95 "Hg10 mi
4:53 AM73 °FPartly cloudy.3 mph94%29.94 "Hg10 mi
3:53 AM74 °FPassing clouds.5 mph94%29.94 "Hg10 mi
2:53 AM75 °FPassing clouds.3 mph90%29.96 "Hg10 mi
1:53 AM75 °FPassing clouds.No wind90%29.97 "Hg10 mi
12:53 AM76 °FPassing clouds.No wind91%29.98 "Hg10 mi
11:53 PM
Sep 20
75 °FPartly cloudy.3 mph94%29.99 "Hg10 mi
10:53 PM76 °FPassing clouds.3 mph94%29.97 "Hg10 mi
9:53 PM76 °FPassing clouds.No wind94%29.96 "Hg10 mi
8:53 PM77 °FPassing clouds.3 mph90%29.95 "Hg10 mi
7:53 PM78 °FBroken clouds.No wind90%29.94 "Hg10 mi
6:53 PM77 °FLight rain. More clouds than sun.No wind88%29.93 "Hg10 mi
5:53 PM75 °FLight rain. Cloudy.No wind90%29.92 "Hg10 mi
Weather by CustomWeather, © 2014

See weather overviewHow to use our weather pages